STARLINK-36511, 67451

Orbit data source: Space-Track

STARLINK-36511, 67451 is a payload satellite owned by SpaceX/Seattle (US) in LEO that was launched on Wed, 14 Jan 2026 UTC via an FALCON 9 launch vehicle from the Air Force Eastern Test Range (AFETR). Payload-class satellites include a variety of spacecraft equipped with specific instruments for various scientific and technological missions. These include communications satellites like Starlink; space stations such as the ISS; scientific satellites like the Hubble; Earth observation satellites from companies like Planet Labs, Umbra, and HawkEye 360; GPS; miniature CubeSats for education and research; and military/defense satellites.

Loading next visibility...
Identifier
67451, 2026-008G
Orbit
LEO
Country
Flag of USUS
Related business
Manufacturer
SpaceX/Seattle
Mission
Operational Commercial Communications
Bus & Motor
STARLINK V2MO, Unknown motor
Mass
575 kg wet, ~530 kg dry
Launch date (UTC)
2026-01-14 (5 months ago)
Launch vehicle
FALCON 9
Launch site
Air Force Eastern Test Range (AFETR)
Object type
Payload
Rocket body
Debris
Shape & HBR
Box + 2 Pan, 17.7 m
Radar Cross Section
36.964 m², Large (>1 m²)

Expand to show TLE details & history
Last TLE update: 16 hours ago

TLE from 16 hours ago
0 STARLINK-36511
1 67451U 26008G   26171.18434856  .00007143  00000-0  26881-3 0  9998
2 67451  43.0023 346.7271 0001268 268.6829  91.3877 15.27584910 25245
Epoch: 2026-06-20T04:25Z
TLE epoch observation values (Epoch: 2026-06-20T04:25:27.715Z)
Latitude
-0.00005°
Longitude
11.95895°
Altitude
482.831 km
Speed
7.626 km/s
True Right ascension
23h 06m 54s
True Declination
0° 00' 00"
Sunlit
Object was in daylight at epoch
Visualization orbit readout
Latitude
Unknown
Longitude
Unknown
Altitude
Unknown
Speed
Unknown
Apparent Right ascension
Unknown
Apparent Declination
Unknown
Sunlit
N/A
Visualization observer readout
Local Sidereal Time
07:18:39
Azimuth
Unknown
Elevation
Unknown
Doppler factor
Unknown
Orbital elements
Apogee altitude
485.849 km
Perigee altitude
484.109 km
Semi-major axis
6,863.116 km
Eccentricity
0.00013
Inclination
43.0023°
RAAN
346.7271°
Arg. of periapsis
268.6829°
True anomaly
91.40223°
Mean anomaly
91.3877°
Eccentric anomaly
91.39496°
Mean motion
3.81734 °/min
Orbital period
94.31 mins
BSTAR
0.00026881
Loading maneuver chart data...
Computing Atmospheric mass density...
Loading historical data...
Loading historical data...
Loading historical data...
Loading historical data...
Loading historical data...
Loading historical data...
Loading historical data...

Documentation

Showing up to 5 results
|